Home   Weather   Washington Junction   Past weeks
Flag for USA

Past Weather in Washington Junction, Maryland, USA — Yesterday and Last 2 Weeks

Now
41 °F

Passing clouds.


Feels Like: 32 °F
Forecast: 53 / 35 °F
Wind: 20 mph from Northwest

Location: Reagan National Airport

Current Time: Mar 23, 2019 at 10:50:16 am

Latest Report: Mar 23, 2019 at 9:52 am


Visibility: 10 mi

Pressure: 30.10 "Hg

Humidity: 41%

Dew Point: 19 °F

Location of Washington JunctionLocation

Past Weather in Washington Junction — Graph

°F

Washington Junction Temperature Yesterday

Maximum temperature yesterday: 54 °F (at 1:52 pm)
Minimum temperature yesterday: 41 °F (at 4:33 pm)
Average temperature yesterday: 47 °F

High & Low Weather Summary for the Past Weeks

 TemperatureHumidityPressure
High77 °F (Mar 15, 1:52 pm)93% (Mar 10, 7:44 am)30.49 "Hg (Mar 10, 7:44 am)
Low34 °F (Mar 8, 4:52 pm)19% (Mar 11, 2:52 pm)29.53 "Hg (Mar 22, 12:52 am)
Average48 °F56%30.11 "Hg
* Reported Mar 8 7:52 am — Mar 23 8:52 am, Washington Junction. Weather by CustomWeather, © 2019

Note: Actual official high and low records may vary slightly from our data, if they occured in-between our weather recording intervals... More about our weather records

Advertising

Washington Junction Weather History for the Previous 24 Hours

Scroll right to see more
 ConditionsComfort  
Time TempWeatherWind HumidityBarometerVisibility
8:52 am
Sat, Mar 23
39 °FPassing clouds.20 mph48%30.06 "Hg10 mi
7:52 am38 °FPassing clouds.14 mph51%30.03 "Hg10 mi
6:52 am37 °FPassing clouds.14 mph52%30.00 "Hg10 mi
5:52 am38 °FClear.15 mph53%29.96 "Hg10 mi
4:52 am39 °FClear.16 mph50%29.92 "Hg10 mi
3:52 am39 °FClear.18 mph50%29.90 "Hg10 mi
2:52 am40 °FPassing clouds.16 mph49%29.88 "Hg10 mi
1:52 am41 °FPassing clouds.21 mph51%29.88 "Hg10 mi
12:52 am41 °FPassing clouds.17 mph53%29.86 "Hg10 mi
11:52 pm
Fri, Mar 22
42 °FPassing clouds.22 mph51%29.86 "Hg10 mi
10:52 pm43 °FPassing clouds.24 mph47%29.83 "Hg10 mi
9:52 pm44 °FPassing clouds.15 mph43%29.82 "Hg10 mi
8:52 pm45 °FPassing clouds.20 mph42%29.78 "Hg10 mi
7:52 pm45 °FPassing clouds.13 mph51%29.75 "Hg10 mi
6:52 pm48 °FPartly sunny.22 mph48%29.70 "Hg10 mi
6:15 pm48 °FScattered clouds.18 mph54%29.68 "Hg10 mi
4:52 pm45 °FBroken clouds.14 mph71%29.64 "Hg10 mi
4:33 pm41 °FLight rain. Cloudy.16 mph80%29.65 "Hg7 mi
4:12 pm48 °FStrong thunderstorms. More clouds than sun.40 mph62%29.65 "Hg9 mi
4:02 pm53 °FLight rain. More clouds than sun.10 mph47%29.59 "Hg10 mi
3:52 pm52 °FCloudy.7 mph47%29.59 "Hg10 mi
3:10 pm52 °FLight rain. Mostly cloudy.14 mph45%29.61 "Hg10 mi
2:52 pm53 °FPartly sunny.8 mph43%29.61 "Hg10 mi
1:52 pm54 °FPartly sunny.13 mph43%29.63 "Hg10 mi
12:52 pm53 °FPartly sunny.20 mph45%29.65 "Hg10 mi
11:52 am48 °FPartly sunny.18 mph50%29.67 "Hg10 mi
10:52 am47 °FPartly sunny.18 mph50%29.67 "Hg10 mi
Weather by CustomWeather, © 2019

See weather overview